BRITE-CA1 (TORONTO)

Last updated on Thu Sep 10 2026 00:03:32 GMT+0000 (Coordinated Universal Time)

1 40020U 14033L 26251.80970198 .00000478 00000+0 79327-4 0 9995 2 40020 97.9846 19.2488 0078609 10.2316 350.0470 14.72807522654525
UTC large
Height (km)
Speed (km/s)
/
Latitude / Longitude
Inclination (degrees)
Orbital Period (minutes)
Azimuth
Elevation
Range (km)
Doppler Factor

Next 0 passes for location: London (51.5072 / 0.1276)

No passes found over London.
BRITE-CA1 (TORONTO)